owner,sensor,date,latitude,longitude,air_temperature,qcFlag 
DISL,ioos:station:DISL:BSCA:1,2018-06-01T23:59:00Z,30.3288,-87.8293,28.73,1111122 
DISL,ioos:station:DISL:BSCA:1,2018-06-02T04:00:00Z,30.3288,-87.8293,28.5,11111222 
DISL,ioos:station:DISL:BSCA:1,2018-06-02T04:30:00Z,30.3288,-87.8293,28.6,11111222 
DISL,ioos:station:DISL:BSCA:1,2018-06-02T04:31:00Z,30.3288,-87.8293,28.52,1111122 
DISL,ioos:station:DISL:BSCA:1,2018-06-02T05:00:00Z,30.3288,-87.8293,28.5,11111222 
DISL,ioos:station:DISL:BSCA:1,2018-06-02T05:30:00Z,30.3288,-87.8293,28.6,11111222 
DISL,ioos:station:DISL:BSCA:1,2018-06-02T05:31:00Z,30.3288,-87.8293,28.52,1111122 
DISL,ioos:station:DISL:BSCA:1,2018-06-02T06:00:00Z,30.3288,-87.8293,28.5,11111222 
DISL,ioos:station:DISL:BSCA:1,2018-06-02T06:01:00Z,30.3288,-87.8293,28.49,1111122 
DISL,ioos:station:DISL:BSCA:1,2018-06-02T07:30:00Z,30.3288,-87.8293,28.3,11111222 
DISL,ioos:station:DISL:BSCA:1,2018-06-02T08:00:00Z,30.3288,-87.8293,28.1,11111222 
DISL,ioos:station:DISL:BSCA:1,2018-06-02T08:30:00Z,30.3288,-87.8293,28.1,11111222 
DISL,ioos:station:DISL:BSCA:1,2018-06-02T08:31:00Z,30.3288,-87.8293,28.18,1111122 
DISL,ioos:station:DISL:BSCA:1,2018-06-02T09:00:00Z,30.3288,-87.8293,28.1,11111222 
DISL,ioos:station:DISL:BSCA:1,2018-06-02T09:30:00Z,30.3288,-87.8293,28.2,11111222 
DISL,ioos:station:DISL:BSCA:1,2018-06-02T09:31:00Z,30.3288,-87.8293,28.21,1111122 
DISL,ioos:station:DISL:BSCA:1,2018-06-02T10:35:00Z,30.3288,-87.8293,28.15,1111122 
DISL,ioos:station:DISL:BSCA:1,2018-06-02T11:39:00Z,30.3288,-87.8293,28.49,1111122 
DISL,ioos:station:DISL:BSCA:1,2018-06-02T16:27:00Z,30.3288,-87.8293,28.7,1111122 
DISL,ioos:station:DISL:BSCA:1,2018-06-02T21:00:00Z,30.3288,-87.8293,29.6,11111222 
DISL,ioos:station:DISL:BSCA:1,2018-06-02T21:01:00Z,30.3288,-87.8293,29.44,1111122 
DISL,ioos:station:DISL:BSCA:1,2018-06-02T22:00:00Z,30.3288,-87.8293,29.4,11111222 
DISL,ioos:station:DISL:BSCA:1,2018-06-02T22:30:00Z,30.3288,-87.8293,29.5,11111222 
DISL,ioos:station:DISL:BSCA:1,2018-06-02T22:31:00Z,30.3288,-87.8293,29.51,1111122 
DISL,ioos:station:DISL:BSCA:1,2018-06-02T23:00:00Z,30.3288,-87.8293,29.6,11111222 
DISL,ioos:station:DISL:BSCA:1,2018-06-02T23:30:00Z,30.3288,-87.8293,29.5,11111222 
DISL,ioos:station:DISL:BSCA:1,2018-06-02T23:31:00Z,30.3288,-87.8293,29.55,1111122 
DISL,ioos:station:DISL:BSCA:1,2018-06-03T00:00:00Z,30.3288,-87.8293,29.2,11111222 
DISL,ioos:station:DISL:BSCA:1,2018-06-03T00:30:00Z,30.3288,-87.8293,29.2,11111222 
DISL,ioos:station:DISL:BSCA:1,2018-06-03T00:34:00Z,30.3288,-87.8293,29.16,1111122 
DISL,ioos:station:DISL:BSCA:1,2018-06-03T01:00:00Z,30.3288,-87.8293,29.1,11111222 
DISL,ioos:station:DISL:BSCA:1,2018-06-03T01:30:00Z,30.3288,-87.8293,29.2,11111222 
DISL,ioos:station:DISL:BSCA:1,2018-06-03T01:32:00Z,30.3288,-87.8293,29.06,1111122 
DISL,ioos:station:DISL:BSCA:1,2018-06-03T02:00:00Z,30.3288,-87.8293,29.3,11111222 
DISL,ioos:station:DISL:BSCA:1,2018-06-03T02:30:00Z,30.3288,-87.8293,29.3,11111222 
DISL,ioos:station:DISL:BSCA:1,2018-06-03T02:31:00Z,30.3288,-87.8293,29.3,1111122 
DISL,ioos:station:DISL:BSCA:1,2018-06-03T03:00:00Z,30.3288,-87.8293,29.2,11111222 
DISL,ioos:station:DISL:BSCA:1,2018-06-03T03:30:00Z,30.3288,-87.8293,29.2,11111222 
DISL,ioos:station:DISL:BSCA:1,2018-06-03T03:31:00Z,30.3288,-87.8293,29.2,1111122 
DISL,ioos:station:DISL:BSCA:1,2018-06-03T04:00:00Z,30.3288,-87.8293,29.1,11111222 
DISL,ioos:station:DISL:BSCA:1,2018-06-03T04:01:00Z,30.3288,-87.8293,29.13,1111122 
DISL,ioos:station:DISL:BSCA:1,2018-06-03T05:00:00Z,30.3288,-87.8293,29.3,11111222 
DISL,ioos:station:DISL:BSCA:1,2018-06-03T05:30:00Z,30.3288,-87.8293,29.3,11111222 
DISL,ioos:station:DISL:BSCA:1,2018-06-03T05:31:00Z,30.3288,-87.8293,29.37,1111122 
DISL,ioos:station:DISL:BSCA:1,2018-06-03T06:00:00Z,30.3288,-87.8293,29.3,11111222 
DISL,ioos:station:DISL:BSCA:1,2018-06-03T06:30:00Z,30.3288,-87.8293,29.1,11111222 
DISL,ioos:station:DISL:BSCA:1,2018-06-03T07:00:00Z,30.3288,-87.8293,29.1,11111222 
DISL,ioos:station:DISL:BSCA:1,2018-06-03T07:30:00Z,30.3288,-87.8293,28.7,11111222 
DISL,ioos:station:DISL:BSCA:1,2018-06-03T08:00:00Z,30.3288,-87.8293,28.5,11111222 
DISL,ioos:station:DISL:BSCA:1,2018-06-03T08:30:00Z,30.3288,-87.8293,28.2,11111222 
DISL,ioos:station:DISL:BSCA:1,2018-06-03T09:00:00Z,30.3288,-87.8293,28.2,11111222 
DISL,ioos:station:DISL:BSCA:1,2018-06-03T09:30:00Z,30.3288,-87.8293,27.9,11111222 
DISL,ioos:station:DISL:BSCA:1,2018-06-03T10:30:00Z,30.3288,-87.8293,27.5,11111222 
DISL,ioos:station:DISL:BSCA:1,2018-06-03T11:00:00Z,30.3288,-87.8293,27.6,11111222 
DISL,ioos:station:DISL:BSCA:1,2018-06-03T11:30:00Z,30.3288,-87.8293,27.4,11111222 
DISL,ioos:station:DISL:BSCA:1,2018-06-03T12:00:00Z,30.3288,-87.8293,27.6,11111222 
DISL,ioos:station:DISL:BSCA:1,2018-06-03T12:30:00Z,30.3288,-87.8293,27.4,11111222 
DISL,ioos:station:DISL:BSCA:1,2018-06-03T13:00:00Z,30.3288,-87.8293,27.6,11111222 
DISL,ioos:station:DISL:BSCA:1,2018-06-03T13:30:00Z,30.3288,-87.8293,27.7,11111222 
DISL,ioos:station:DISL:BSCA:1,2018-06-03T14:00:00Z,30.3288,-87.8293,27.5,11111222 
DISL,ioos:station:DISL:BSCA:1,2018-06-03T14:30:00Z,30.3288,-87.8293,27.7,11111222 
DISL,ioos:station:DISL:BSCA:1,2018-06-03T15:00:00Z,30.3288,-87.8293,27.7,11111222 
DISL,ioos:station:DISL:BSCA:1,2018-06-03T15:30:00Z,30.3288,-87.8293,28.2,11111222 
DISL,ioos:station:DISL:BSCA:1,2018-06-03T16:00:00Z,30.3288,-87.8293,28.5,11111222 
DISL,ioos:station:DISL:BSCA:1,2018-06-03T16:30:00Z,30.3288,-87.8293,29.0,11111222 
DISL,ioos:station:DISL:BSCA:1,2018-06-03T17:00:00Z,30.3288,-87.8293,28.8,11111222 
DISL,ioos:station:DISL:BSCA:1,2018-06-03T17:30:00Z,30.3288,-87.8293,29.0,11111222 
DISL,ioos:station:DISL:BSCA:1,2018-06-03T18:00:00Z,30.3288,-87.8293,29.0,11111222 
DISL,ioos:station:DISL:BSCA:1,2018-06-03T18:30:00Z,30.3288,-87.8293,29.1,11111222 
DISL,ioos:station:DISL:BSCA:1,2018-06-03T19:00:00Z,30.3288,-87.8293,29.3,11111222 
DISL,ioos:station:DISL:BSCA:1,2018-06-03T19:30:00Z,30.3288,-87.8293,29.0,11111222 
DISL,ioos:station:DISL:BSCA:1,2018-06-03T20:00:00Z,30.3288,-87.8293,29.2,11111222 
DISL,ioos:station:DISL:BSCA:1,2018-06-03T20:30:00Z,30.3288,-87.8293,29.2,11111222 
DISL,ioos:station:DISL:BSCA:1,2018-06-03T21:00:00Z,30.3288,-87.8293,29.3,11111222 
DISL,ioos:station:DISL:BSCA:1,2018-06-03T21:30:00Z,30.3288,-87.8293,29.5,11111222 
DISL,ioos:station:DISL:BSCA:1,2018-06-03T22:00:00Z,30.3288,-87.8293,29.6,11111222 
DISL,ioos:station:DISL:BSCA:1,2018-06-03T22:30:00Z,30.3288,-87.8293,29.9,11111222 
DISL,ioos:station:DISL:BSCA:1,2018-06-03T23:30:00Z,30.3288,-87.8293,29.5,11111222 
DISL,ioos:station:DISL:BSCA:1,2018-06-04T00:00:00Z,30.3288,-87.8293,29.7,11111222 
DISL,ioos:station:DISL:BSCA:1,2018-06-04T00:30:00Z,30.3288,-87.8293,29.5,11111222 
DISL,ioos:station:DISL:BSCA:1,2018-06-04T01:00:00Z,30.3288,-87.8293,29.3,11111222 
DISL,ioos:station:DISL:BSCA:1,2018-06-04T02:30:00Z,30.3288,-87.8293,26.8,11111222 
DISL,ioos:station:DISL:BSCA:1,2018-06-04T03:00:00Z,30.3288,-87.8293,25.74,1111122 
DISL,ioos:station:DISL:BSCA:1,2018-06-04T03:30:00Z,30.3288,-87.8293,26.0,11111222 
DISL,ioos:station:DISL:BSCA:1,2018-06-04T04:00:00Z,30.3288,-87.8293,26.62,1111122 
DISL,ioos:station:DISL:BSCA:1,2018-06-04T04:30:00Z,30.3288,-87.8293,25.74,1111122 
DISL,ioos:station:DISL:BSCA:1,2018-06-04T05:00:00Z,30.3288,-87.8293,26.3,11111222 
DISL,ioos:station:DISL:BSCA:1,2018-06-04T05:30:00Z,30.3288,-87.8293,27.06,1111122 
DISL,ioos:station:DISL:BSCA:1,2018-06-04T06:00:00Z,30.3288,-87.8293,26.9,11111222 
DISL,ioos:station:DISL:BSCA:1,2018-06-04T06:30:00Z,30.3288,-87.8293,26.9,11111222 
DISL,ioos:station:DISL:BSCA:1,2018-06-04T06:34:00Z,30.3288,-87.8293,26.93,1111122 
DISL,ioos:station:DISL:BSCA:1,2018-06-04T07:24:00Z,30.3288,-87.8293,26.21,1111122 
DISL,ioos:station:DISL:BSCA:1,2018-06-04T15:38:00Z,30.3288,-87.8293,27.49,1111122 
DISL,ioos:station:DISL:BSCA:1,2018-06-05T16:00:00Z,30.3288,-87.8293,21.3,11111222 
DISL,ioos:station:DISL:BSCA:1,2018-06-05T16:30:00Z,30.3288,-87.8293,21.4,11111222 
DISL,ioos:station:DISL:BSCA:1,2018-06-05T17:00:00Z,30.3288,-87.8293,21.5,11111222 
DISL,ioos:station:DISL:BSCA:1,2018-06-05T17:30:00Z,30.3288,-87.8293,22.2,11111222 
DISL,ioos:station:DISL:BSCA:1,2018-06-05T18:00:00Z,30.3288,-87.8293,22.2,11111222 
DISL,ioos:station:DISL:BSCA:1,2018-06-05T18:30:00Z,30.3288,-87.8293,22.8,11111222 
DISL,ioos:station:DISL:BSCA:1,2018-06-05T19:00:00Z,30.3288,-87.8293,23.6,11111222 
DISL,ioos:station:DISL:BSCA:1,2018-06-05T19:30:00Z,30.3288,-87.8293,23.7,11111222 
DISL,ioos:station:DISL:BSCA:1,2018-06-05T20:00:00Z,30.3288,-87.8293,23.9,11111222 
DISL,ioos:station:DISL:BSCA:1,2018-06-05T20:30:00Z,30.3288,-87.8293,24.5,11111222 
DISL,ioos:station:DISL:BSCA:1,2018-06-05T21:00:00Z,30.3288,-87.8293,24.5,11111222 
DISL,ioos:station:DISL:BSCA:1,2018-06-05T21:30:00Z,30.3288,-87.8293,24.7,11111222 
DISL,ioos:station:DISL:BSCA:1,2018-06-05T22:00:00Z,30.3288,-87.8293,24.9,11111222 
DISL,ioos:station:DISL:BSCA:1,2018-06-05T22:30:00Z,30.3288,-87.8293,25.3,11111222 
DISL,ioos:station:DISL:BSCA:1,2018-06-05T23:00:00Z,30.3288,-87.8293,25.5,11111222 
DISL,ioos:station:DISL:BSCA:1,2018-06-05T23:30:00Z,30.3288,-87.8293,25.8,11111222 
DISL,ioos:station:DISL:BSCA:1,2018-06-06T00:00:00Z,30.3288,-87.8293,25.8,11111222 
DISL,ioos:station:DISL:BSCA:1,2018-06-06T00:30:00Z,30.3288,-87.8293,25.7,11111222 
DISL,ioos:station:DISL:BSCA:1,2018-06-06T01:00:00Z,30.3288,-87.8293,25.3,11111222 
DISL,ioos:station:DISL:BSCA:1,2018-06-06T01:30:00Z,30.3288,-87.8293,25.5,11111222 
DISL,ioos:station:DISL:BSCA:1,2018-06-06T02:00:00Z,30.3288,-87.8293,25.5,11111222 
DISL,ioos:station:DISL:BSCA:1,2018-06-06T02:30:00Z,30.3288,-87.8293,25.7,11111222 
DISL,ioos:station:DISL:BSCA:1,2018-06-06T03:00:00Z,30.3288,-87.8293,25.7,11111222 
DISL,ioos:station:DISL:BSCA:1,2018-06-06T03:30:00Z,30.3288,-87.8293,24.2,11111222 
DISL,ioos:station:DISL:BSCA:1,2018-06-06T04:00:00Z,30.3288,-87.8293,24.0,11111222 
DISL,ioos:station:DISL:BSCA:1,2018-06-06T04:30:00Z,30.3288,-87.8293,23.9,11111222 
DISL,ioos:station:DISL:BSCA:1,2018-06-06T05:00:00Z,30.3288,-87.8293,23.9,11111222 
DISL,ioos:station:DISL:BSCA:1,2018-06-06T05:30:00Z,30.3288,-87.8293,23.6,11111222 
DISL,ioos:station:DISL:BSCA:1,2018-06-06T06:00:00Z,30.3288,-87.8293,23.5,11111222 
DISL,ioos:station:DISL:BSCA:1,2018-06-06T06:30:00Z,30.3288,-87.8293,23.4,11111222 
DISL,ioos:station:DISL:BSCA:1,2018-06-06T07:00:00Z,30.3288,-87.8293,23.5,11111222 
DISL,ioos:station:DISL:BSCA:1,2018-06-06T07:30:00Z,30.3288,-87.8293,23.2,11111222 
DISL,ioos:station:DISL:BSCA:1,2018-06-06T08:00:00Z,30.3288,-87.8293,23.3,11111222 
DISL,ioos:station:DISL:BSCA:1,2018-06-06T08:30:00Z,30.3288,-87.8293,23.0,11111222 
DISL,ioos:station:DISL:BSCA:1,2018-06-06T09:00:00Z,30.3288,-87.8293,22.6,11111222 
DISL,ioos:station:DISL:BSCA:1,2018-06-06T09:30:00Z,30.3288,-87.8293,22.7,11111222 
DISL,ioos:station:DISL:BSCA:1,2018-06-06T10:00:00Z,30.3288,-87.8293,22.4,11111222 
DISL,ioos:station:DISL:BSCA:1,2018-06-06T10:30:00Z,30.3288,-87.8293,22.6,11111222 
DISL,ioos:station:DISL:BSCA:1,2018-06-06T11:00:00Z,30.3288,-87.8293,23.0,11111222 
DISL,ioos:station:DISL:BSCA:1,2018-06-06T11:30:00Z,30.3288,-87.8293,23.6,11111222 
DISL,ioos:station:DISL:BSCA:1,2018-06-06T12:00:00Z,30.3288,-87.8293,23.6,11111222 
DISL,ioos:station:DISL:BSCA:1,2018-06-06T12:30:00Z,30.3288,-87.8293,23.6,11111222 
DISL,ioos:station:DISL:BSCA:1,2018-06-06T13:00:00Z,30.3288,-87.8293,23.7,11111222 
DISL,ioos:station:DISL:BSCA:1,2018-06-06T13:30:00Z,30.3288,-87.8293,24.1,11111222 
DISL,ioos:station:DISL:BSCA:1,2018-06-06T14:00:00Z,30.3288,-87.8293,24.2,11111222 
DISL,ioos:station:DISL:BSCA:1,2018-06-06T14:30:00Z,30.3288,-87.8293,25.1,11111222 
DISL,ioos:station:DISL:BSCA:1,2018-06-06T15:00:00Z,30.3288,-87.8293,25.8,11111222 
DISL,ioos:station:DISL:BSCA:1,2018-06-06T15:30:00Z,30.3288,-87.8293,25.3,11111222 
DISL,ioos:station:DISL:BSCA:1,2018-06-06T16:00:00Z,30.3288,-87.8293,25.4,11111222 
DISL,ioos:station:DISL:BSCA:1,2018-06-06T16:30:00Z,30.3288,-87.8293,25.7,11111222 
DISL,ioos:station:DISL:BSCA:1,2018-06-06T17:00:00Z,30.3288,-87.8293,25.7,11111222 
DISL,ioos:station:DISL:BSCA:1,2018-06-06T17:30:00Z,30.3288,-87.8293,25.8,11111222 
DISL,ioos:station:DISL:BSCA:1,2018-06-06T18:00:00Z,30.3288,-87.8293,26.3,11111222 
DISL,ioos:station:DISL:BSCA:1,2018-06-06T18:30:00Z,30.3288,-87.8293,26.8,11111222 
DISL,ioos:station:DISL:BSCA:1,2018-06-06T19:00:00Z,30.3288,-87.8293,27.0,11111222 
DISL,ioos:station:DISL:BSCA:1,2018-06-06T19:30:00Z,30.3288,-87.8293,27.1,11111222 
DISL,ioos:station:DISL:BSCA:1,2018-06-06T20:00:00Z,30.3288,-87.8293,27.4,11111222 
DISL,ioos:station:DISL:BSCA:1,2018-06-06T20:30:00Z,30.3288,-87.8293,27.5,11111222 
DISL,ioos:station:DISL:BSCA:1,2018-06-06T21:00:00Z,30.3288,-87.8293,27.8,11111222 
DISL,ioos:station:DISL:BSCA:1,2018-06-06T21:30:00Z,30.3288,-87.8293,28.1,11111222 
DISL,ioos:station:DISL:BSCA:1,2018-06-06T22:00:00Z,30.3288,-87.8293,27.9,11111222 
DISL,ioos:station:DISL:BSCA:1,2018-06-06T22:30:00Z,30.3288,-87.8293,28.1,11111222 
DISL,ioos:station:DISL:BSCA:1,2018-06-06T23:00:00Z,30.3288,-87.8293,28.0,11111222 
DISL,ioos:station:DISL:BSCA:1,2018-06-06T23:30:00Z,30.3288,-87.8293,27.9,11111222 
DISL,ioos:station:DISL:BSCA:1,2018-06-07T00:00:00Z,30.3288,-87.8293,27.8,11111222 
DISL,ioos:station:DISL:BSCA:1,2018-06-07T00:30:00Z,30.3288,-87.8293,27.7,11111222 
DISL,ioos:station:DISL:BSCA:1,2018-06-07T01:00:00Z,30.3288,-87.8293,27.5,11111222 
DISL,ioos:station:DISL:BSCA:1,2018-06-07T01:30:00Z,30.3288,-87.8293,27.6,11111222 
DISL,ioos:station:DISL:BSCA:1,2018-06-07T02:00:00Z,30.3288,-87.8293,27.5,11111222 
DISL,ioos:station:DISL:BSCA:1,2018-06-07T02:30:00Z,30.3288,-87.8293,27.6,11111222 
DISL,ioos:station:DISL:BSCA:1,2018-06-07T03:00:00Z,30.3288,-87.8293,27.5,11111222 
DISL,ioos:station:DISL:BSCA:1,2018-06-07T03:30:00Z,30.3288,-87.8293,27.4,11111222 
DISL,ioos:station:DISL:BSCA:1,2018-06-07T04:00:00Z,30.3288,-87.8293,27.4,11111222 
DISL,ioos:station:DISL:BSCA:1,2018-06-07T04:30:00Z,30.3288,-87.8293,27.5,11111222 
DISL,ioos:station:DISL:BSCA:1,2018-06-07T05:00:00Z,30.3288,-87.8293,27.3,11111222 
DISL,ioos:station:DISL:BSCA:1,2018-06-07T05:30:00Z,30.3288,-87.8293,27.3,11111222 
DISL,ioos:station:DISL:BSCA:1,2018-06-07T06:00:00Z,30.3288,-87.8293,27.5,11111222 
DISL,ioos:station:DISL:BSCA:1,2018-06-07T06:30:00Z,30.3288,-87.8293,27.4,11111222 
DISL,ioos:station:DISL:BSCA:1,2018-06-07T07:00:00Z,30.3288,-87.8293,26.7,11111222 
DISL,ioos:station:DISL:BSCA:1,2018-06-07T07:30:00Z,30.3288,-87.8293,26.2,11111222 
DISL,ioos:station:DISL:BSCA:1,2018-06-07T08:00:00Z,30.3288,-87.8293,25.9,11111222 
DISL,ioos:station:DISL:BSCA:1,2018-06-07T08:30:00Z,30.3288,-87.8293,25.2,11111222 
DISL,ioos:station:DISL:BSCA:1,2018-06-07T09:00:00Z,30.3288,-87.8293,25.0,11111222 
DISL,ioos:station:DISL:BSCA:1,2018-06-07T09:30:00Z,30.3288,-87.8293,24.7,11111222 
DISL,ioos:station:DISL:BSCA:1,2018-06-07T10:00:00Z,30.3288,-87.8293,25.0,11111222 
DISL,ioos:station:DISL:BSCA:1,2018-06-07T10:30:00Z,30.3288,-87.8293,24.3,11111222 
DISL,ioos:station:DISL:BSCA:1,2018-06-07T11:00:00Z,30.3288,-87.8293,24.4,11111222 
DISL,ioos:station:DISL:BSCA:1,2018-06-07T11:30:00Z,30.3288,-87.8293,24.3,11111222 
DISL,ioos:station:DISL:BSCA:1,2018-06-07T12:00:00Z,30.3288,-87.8293,23.9,11111222 
DISL,ioos:station:DISL:BSCA:1,2018-06-07T12:30:00Z,30.3288,-87.8293,24.3,11111222 
DISL,ioos:station:DISL:BSCA:1,2018-06-07T13:00:00Z,30.3288,-87.8293,25.1,11111222 
DISL,ioos:station:DISL:BSCA:1,2018-06-07T13:30:00Z,30.3288,-87.8293,26.1,11111222 
DISL,ioos:station:DISL:BSCA:1,2018-06-07T14:00:00Z,30.3288,-87.8293,26.9,11111222 
DISL,ioos:station:DISL:BSCA:1,2018-06-07T14:30:00Z,30.3288,-87.8293,27.7,11111222 
DISL,ioos:station:DISL:BSCA:1,2018-06-07T15:00:00Z,30.3288,-87.8293,28.5,11111222 
DISL,ioos:station:DISL:BSCA:1,2018-06-07T15:30:00Z,30.3288,-87.8293,29.0,11111222 
DISL,ioos:station:DISL:BSCA:1,2018-06-07T16:00:00Z,30.3288,-87.8293,28.2,11111222 
DISL,ioos:station:DISL:BSCA:1,2018-06-07T16:30:00Z,30.3288,-87.8293,28.0,11111222 
DISL,ioos:station:DISL:BSCA:1,2018-06-07T17:00:00Z,30.3288,-87.8293,27.9,11111222 
DISL,ioos:station:DISL:BSCA:1,2018-06-07T17:30:00Z,30.3288,-87.8293,28.9,11111222 
DISL,ioos:station:DISL:BSCA:1,2018-06-07T18:00:00Z,30.3288,-87.8293,29.1,11111222 
DISL,ioos:station:DISL:BSCA:1,2018-06-07T18:30:00Z,30.3288,-87.8293,29.4,11111222 
DISL,ioos:station:DISL:BSCA:1,2018-06-07T19:00:00Z,30.3288,-87.8293,29.5,11111222 
DISL,ioos:station:DISL:BSCA:1,2018-06-07T19:30:00Z,30.3288,-87.8293,29.6,11111222 
DISL,ioos:station:DISL:BSCA:1,2018-06-07T20:00:00Z,30.3288,-87.8293,29.6,11111222 
DISL,ioos:station:DISL:BSCA:1,2018-06-07T20:30:00Z,30.3288,-87.8293,29.8,11111222 
DISL,ioos:station:DISL:BSCA:1,2018-06-07T21:00:00Z,30.3288,-87.8293,29.7,11111222 
DISL,ioos:station:DISL:BSCA:1,2018-06-07T21:30:00Z,30.3288,-87.8293,29.4,11111222 
DISL,ioos:station:DISL:BSCA:1,2018-06-07T22:00:00Z,30.3288,-87.8293,29.6,11111222 
DISL,ioos:station:DISL:BSCA:1,2018-06-07T22:30:00Z,30.3288,-87.8293,29.6,11111222 
DISL,ioos:station:DISL:BSCA:1,2018-06-07T23:00:00Z,30.3288,-87.8293,29.7,11111222 
DISL,ioos:station:DISL:BSCA:1,2018-06-07T23:30:00Z,30.3288,-87.8293,29.8,11111222 
DISL,ioos:station:DISL:BSCA:1,2018-06-08T00:00:00Z,30.3288,-87.8293,29.7,11111222 
DISL,ioos:station:DISL:BSCA:1,2018-06-08T00:30:00Z,30.3288,-87.8293,29.5,11111222 
DISL,ioos:station:DISL:BSCA:1,2018-06-08T01:00:00Z,30.3288,-87.8293,29.3,11111222 
DISL,ioos:station:DISL:BSCA:1,2018-06-08T01:30:00Z,30.3288,-87.8293,29.3,11111222 
DISL,ioos:station:DISL:BSCA:1,2018-06-08T02:00:00Z,30.3288,-87.8293,29.2,11111222 
DISL,ioos:station:DISL:BSCA:1,2018-06-08T02:30:00Z,30.3288,-87.8293,29.2,11111222 
DISL,ioos:station:DISL:BSCA:1,2018-06-08T03:00:00Z,30.3288,-87.8293,29.2,11111222 
DISL,ioos:station:DISL:BSCA:1,2018-06-08T03:30:00Z,30.3288,-87.8293,29.1,11111222 
DISL,ioos:station:DISL:BSCA:1,2018-06-08T04:00:00Z,30.3288,-87.8293,29.1,11111222 
DISL,ioos:station:DISL:BSCA:1,2018-06-08T04:30:00Z,30.3288,-87.8293,29.0,11111222 
DISL,ioos:station:DISL:BSCA:1,2018-06-08T04:44:00Z,30.3288,-87.8293,28.99,1111122 
DISL,ioos:station:DISL:BSCA:1,2018-06-08T05:00:00Z,30.3288,-87.8293,28.9,11111222 
DISL,ioos:station:DISL:BSCA:1,2018-06-08T05:30:00Z,30.3288,-87.8293,28.8,11111222 
DISL,ioos:station:DISL:BSCA:1,2018-06-08T06:00:00Z,30.3288,-87.8293,28.8,11111222 
DISL,ioos:station:DISL:BSCA:1,2018-06-08T06:30:00Z,30.3288,-87.8293,27.0,11111222 
DISL,ioos:station:DISL:BSCA:1,2018-06-08T07:00:00Z,30.3288,-87.8293,26.2,11111222 
DISL,ioos:station:DISL:BSCA:1,2018-06-08T07:30:00Z,30.3288,-87.8293,25.8,11111222 
DISL,ioos:station:DISL:BSCA:1,2018-06-08T08:00:00Z,30.3288,-87.8293,25.8,11111222 
DISL,ioos:station:DISL:BSCA:1,2018-06-08T08:30:00Z,30.3288,-87.8293,25.2,11111222 
DISL,ioos:station:DISL:BSCA:1,2018-06-08T09:00:00Z,30.3288,-87.8293,25.5,11111222 
DISL,ioos:station:DISL:BSCA:1,2018-06-08T09:30:00Z,30.3288,-87.8293,25.4,11111222 
DISL,ioos:station:DISL:BSCA:1,2018-06-08T10:00:00Z,30.3288,-87.8293,25.6,11111222 
DISL,ioos:station:DISL:BSCA:1,2018-06-08T10:30:00Z,30.3288,-87.8293,25.4,11111222 
DISL,ioos:station:DISL:BSCA:1,2018-06-08T11:00:00Z,30.3288,-87.8293,25.3,11111222 
DISL,ioos:station:DISL:BSCA:1,2018-06-08T11:30:00Z,30.3288,-87.8293,25.2,11111222 
DISL,ioos:station:DISL:BSCA:1,2018-06-08T12:00:00Z,30.3288,-87.8293,25.9,11111222 
DISL,ioos:station:DISL:BSCA:1,2018-06-08T12:30:00Z,30.3288,-87.8293,26.5,11111222 
DISL,ioos:station:DISL:BSCA:1,2018-06-08T13:00:00Z,30.3288,-87.8293,27.5,11111222 
DISL,ioos:station:DISL:BSCA:1,2018-06-08T13:30:00Z,30.3288,-87.8293,27.7,11111222 
DISL,ioos:station:DISL:BSCA:1,2018-06-08T14:00:00Z,30.3288,-87.8293,27.6,11111222 
DISL,ioos:station:DISL:BSCA:1,2018-06-08T14:30:00Z,30.3288,-87.8293,27.8,11111222 
DISL,ioos:station:DISL:BSCA:1,2018-06-08T15:00:00Z,30.3288,-87.8293,27.9,11111222 
DISL,ioos:station:DISL:BSCA:1,2018-06-08T15:30:00Z,30.3288,-87.8293,28.2,11111222 
DISL,ioos:station:DISL:BSCA:1,2018-06-08T16:00:00Z,30.3288,-87.8293,28.6,11111222 
DISL,ioos:station:DISL:BSCA:1,2018-06-08T16:30:00Z,30.3288,-87.8293,28.8,11111222 
DISL,ioos:station:DISL:BSCA:1,2018-06-08T17:00:00Z,30.3288,-87.8293,28.9,11111222 
DISL,ioos:station:DISL:BSCA:1,2018-06-08T17:30:00Z,30.3288,-87.8293,29.0,11111222 
DISL,ioos:station:DISL:BSCA:1,2018-06-08T18:00:00Z,30.3288,-87.8293,29.4,11111222 
DISL,ioos:station:DISL:BSCA:1,2018-06-08T18:30:00Z,30.3288,-87.8293,29.6,11111222 
DISL,ioos:station:DISL:BSCA:1,2018-06-08T19:00:00Z,30.3288,-87.8293,29.3,11111222 
DISL,ioos:station:DISL:BSCA:1,2018-06-08T19:30:00Z,30.3288,-87.8293,29.2,11111222 
DISL,ioos:station:DISL:BSCA:1,2018-06-08T20:00:00Z,30.3288,-87.8293,28.8,11111222 
DISL,ioos:station:DISL:BSCA:1,2018-06-08T20:30:00Z,30.3288,-87.8293,25.8,11111222 
DISL,ioos:station:DISL:BSCA:1,2018-06-08T21:00:00Z,30.3288,-87.8293,27.0,11111222 
DISL,ioos:station:DISL:BSCA:1,2018-06-08T21:30:00Z,30.3288,-87.8293,28.7,11111222 
DISL,ioos:station:DISL:BSCA:1,2018-06-08T22:00:00Z,30.3288,-87.8293,28.8,11111222 
DISL,ioos:station:DISL:BSCA:1,2018-06-08T22:30:00Z,30.3288,-87.8293,28.8,11111222 
DISL,ioos:station:DISL:BSCA:1,2018-06-08T23:00:00Z,30.3288,-87.8293,28.7,11111222 
DISL,ioos:station:DISL:BSCA:1,2018-06-08T23:30:00Z,30.3288,-87.8293,28.7,11111222 
DISL,ioos:station:DISL:BSCA:1,2018-06-09T00:00:00Z,30.3288,-87.8293,28.8,11111222 
DISL,ioos:station:DISL:BSCA:1,2018-06-09T00:30:00Z,30.3288,-87.8293,28.6,11111222 
DISL,ioos:station:DISL:BSCA:1,2018-06-09T01:00:00Z,30.3288,-87.8293,28.7,11111222 
DISL,ioos:station:DISL:BSCA:1,2018-06-09T01:30:00Z,30.3288,-87.8293,28.6,11111222 
DISL,ioos:station:DISL:BSCA:1,2018-06-09T02:00:00Z,30.3288,-87.8293,28.5,11111222 
DISL,ioos:station:DISL:BSCA:1,2018-06-09T02:30:00Z,30.3288,-87.8293,28.5,11111222 
DISL,ioos:station:DISL:BSCA:1,2018-06-09T03:00:00Z,30.3288,-87.8293,28.4,11111222 
DISL,ioos:station:DISL:BSCA:1,2018-06-09T03:30:00Z,30.3288,-87.8293,28.4,11111222 
DISL,ioos:station:DISL:BSCA:1,2018-06-09T04:00:00Z,30.3288,-87.8293,28.4,11111222 
DISL,ioos:station:DISL:BSCA:1,2018-06-09T04:30:00Z,30.3288,-87.8293,28.3,11111222 
DISL,ioos:station:DISL:BSCA:1,2018-06-09T05:00:00Z,30.3288,-87.8293,28.2,11111222 
DISL,ioos:station:DISL:BSCA:1,2018-06-09T05:30:00Z,30.3288,-87.8293,28.1,11111222 
DISL,ioos:station:DISL:BSCA:1,2018-06-09T06:00:00Z,30.3288,-87.8293,26.3,11111222 
DISL,ioos:station:DISL:BSCA:1,2018-06-09T06:30:00Z,30.3288,-87.8293,26.3,11111222 
DISL,ioos:station:DISL:BSCA:1,2018-06-09T07:00:00Z,30.3288,-87.8293,26.2,11111222 
DISL,ioos:station:DISL:BSCA:1,2018-06-09T07:30:00Z,30.3288,-87.8293,26.2,11111222 
DISL,ioos:station:DISL:BSCA:1,2018-06-09T08:00:00Z,30.3288,-87.8293,27.6,11111222 
DISL,ioos:station:DISL:BSCA:1,2018-06-09T08:30:00Z,30.3288,-87.8293,27.6,11111222 
DISL,ioos:station:DISL:BSCA:1,2018-06-09T09:00:00Z,30.3288,-87.8293,27.6,11111222 
DISL,ioos:station:DISL:BSCA:1,2018-06-09T09:30:00Z,30.3288,-87.8293,27.5,11111222 
DISL,ioos:station:DISL:BSCA:1,2018-06-09T10:00:00Z,30.3288,-87.8293,27.5,11111222 
DISL,ioos:station:DISL:BSCA:1,2018-06-09T10:30:00Z,30.3288,-87.8293,27.4,11111222 
DISL,ioos:station:DISL:BSCA:1,2018-06-09T11:00:00Z,30.3288,-87.8293,27.5,11111222 
DISL,ioos:station:DISL:BSCA:1,2018-06-09T11:30:00Z,30.3288,-87.8293,27.5,11111222 
DISL,ioos:station:DISL:BSCA:1,2018-06-09T12:00:00Z,30.3288,-87.8293,27.7,11111222 
DISL,ioos:station:DISL:BSCA:1,2018-06-09T12:30:00Z,30.3288,-87.8293,27.9,11111222 
DISL,ioos:station:DISL:BSCA:1,2018-06-09T13:00:00Z,30.3288,-87.8293,29.0,11111222 
DISL,ioos:station:DISL:BSCA:1,2018-06-09T13:30:00Z,30.3288,-87.8293,28.1,11111222 
DISL,ioos:station:DISL:BSCA:1,2018-06-09T14:00:00Z,30.3288,-87.8293,27.9,11111222 
DISL,ioos:station:DISL:BSCA:1,2018-06-09T14:30:00Z,30.3288,-87.8293,28.0,11111222 
DISL,ioos:station:DISL:BSCA:1,2018-06-09T15:00:00Z,30.3288,-87.8293,27.9,11111222 
DISL,ioos:station:DISL:BSCA:1,2018-06-09T15:30:00Z,30.3288,-87.8293,28.2,11111222 
DISL,ioos:station:DISL:BSCA:1,2018-06-09T16:00:00Z,30.3288,-87.8293,28.1,11111222 
DISL,ioos:station:DISL:BSCA:1,2018-06-09T16:30:00Z,30.3288,-87.8293,28.4,11111222 